#timestamp,LO_Frequency,Hit,StdDev 
1615726815.2,286046981.0,N
1615726835.0,286046981.3,N
1615726835.9,286046981.3,N
1615726855.8,286046986.3,N
1615726875.6,286046987.1,N
1615726895.5,286046990.0,N
1615726915.3,286046984.3,N
1615726935.1,286046977.5,Y
1615726955.9,286046988.6,P
1615726975.7,286046988.2,P
1615726995.5,286046986.0,P
1615727015.4,286046985.3,Y
1615727035.2,286046998.4,P
1615727055.1,286046996.7,N
1615727056.0,286046996.7,N
1615727075.8,286046995.7,N
1615727095.6,286046997.8,N
1615727115.5,286046998.1,N
1615727135.3,286047001.0,N
1615727155.1,286046999.0,N
1615727175.9,286046999.8,N
1615727195.7,286047002.8,N
1615727215.6,286047001.2,N
1615727235.4,286047000.7,N
1615727255.2,286047002.6,N
1615727275.1,286047004.7,N
1615727276.0,286047004.7,N
1615727295.8,286047006.9,N
1615727315.6,286047005.0,N
1615727335.5,286047006.0,N
1615727355.3,286047001.4,N
1615727375.2,286046999.0,N
1615727395.9,286046997.5,N
1615727415.7,286046993.9,N
1615727435.6,286046998.6,N
1615727455.4,286047010.8,N
1615727475.2,286047011.2,N
1615727495.1,286047012.6,N
1615727496.0,286047012.6,N
1615727515.8,286047012.3,N
1615727535.7,286047006.8,N
1615727555.5,286047006.3,N
1615727575.3,286047008.4,N
1615727595.2,286047007.5,N
1615727615.0,286047006.2,N
1615727615.9,286047006.2,N
1615727635.7,286047003.4,N
1615727655.6,286047002.7,N
1615727675.4,286047004.0,N
1615727695.3,286047019.8,Y
1615727715.1,286047029.8,P
1615727716.0,286047029.8,N
1615727735.8,286047029.3,N
1615727755.7,286047040.1,Y
1615727775.5,286047020.4,P
1615727795.4,286047026.2,P
1615727815.2,286047027.7,P
1615727835.0,286047022.3,Y
1615727835.9,286047022.3,P
1615727855.8,286046990.4,P
1615727875.6,286046983.1,N
1615727895.5,286046972.9,N
1615727915.3,286046970.2,N
1615727935.1,286046981.2,N
1615727955.9,286046995.1,N
1615727975.7,286047010.2,N
1615727995.5,286047028.2,N
1615728015.4,286047031.8,N
1615728035.2,286047039.5,N
1615728055.1,286047044.2,N
1615728056.0,286047044.2,N
1615728075.8,286047047.4,N
1615728095.6,286047051.6,N
1615728115.5,286047053.6,N
1615728135.3,286047047.6,N
1615728155.1,286047046.1,N
1615728175.9,286047046.2,N
1615728195.7,286047038.0,N
1615728215.6,286047027.2,N
1615728235.4,286047024.7,N
1615728255.2,286047017.2,N
1615728275.1,286047024.5,N
1615728276.0,286047024.5,N
1615728295.8,286047032.9,N
1615728315.6,286047035.6,N
1615728335.5,286047023.7,N
1615728355.3,286047023.2,N
1615728375.2,286047020.0,N
1615728395.9,286047013.9,N
1615728415.7,286047010.2,N
1615728435.6,286047007.7,N
1615728455.4,286047007.7,N
1615728475.2,286047003.3,N
1615728495.1,286046999.6,N
1615728496.0,286046999.6,N
1615728515.8,286046992.8,N
1615728535.7,286046989.8,N
1615728555.5,286046990.7,N
1615728575.3,286047004.7,N
1615728595.2,286047007.3,N
1615728615.0,286047003.9,N
1615728615.9,286047003.9,N
1615728635.7,286046996.2,N
1615728655.6,286046987.2,N
1615728675.4,286046981.1,N
1615728695.3,286046974.9,N
1615728715.1,286046973.7,N
1615728716.0,286046973.7,N
1615728735.8,286046973.3,N
1615728755.7,286046968.2,N
1615728775.5,286046968.8,N
1615728795.4,286046963.0,N
1615728815.2,286046961.8,N
1615728835.0,286046960.1,N
1615728835.9,286046960.1,N
1615728855.8,286046956.5,N
1615728875.6,286046953.9,N
1615728895.4,286046957.7,N
1615728915.3,286046969.7,N
1615728935.1,286046980.7,N
1615728955.9,286046991.8,N
1615728975.7,286047004.1,N
1615728995.5,286047009.0,N
1615729015.4,286047012.8,N
1615729035.2,286047021.4,N
1615729055.0,286047022.9,N
1615729055.9,286047022.9,N
1615729075.8,286047022.8,N
1615729095.6,286047023.7,N
1615729115.5,286047026.7,N
1615729135.3,286047017.1,N
1615729155.1,286047015.2,N
1615729175.9,286047008.7,N
1615729195.7,286046997.4,N
1615729215.5,286046993.0,N
1615729235.4,286047000.1,N
1615729255.2,286047007.1,N
1615729275.0,286047005.6,N
1615729276.0,286047005.6,N
1615729295.8,286046996.9,N
1615729315.6,286046991.5,N
1615729335.5,286046982.3,N
1615729355.3,286046976.8,N
1615729375.1,286046969.6,N
1615729395.9,286046968.7,N
1615729415.7,286046973.3,N
1615729435.6,286046979.4,N
1615729455.4,286046987.0,N
1615729475.2,286047000.9,N
1615729495.1,286047000.2,N
1615729496.0,286047000.2,N
1615729515.8,286046992.1,N
1615729535.6,286046986.2,N
1615729555.5,286046983.8,N
1615729575.3,286046975.9,N
1615729595.1,286046969.1,N
1615729615.9,286046962.6,N
1615729635.7,286046957.0,N
1615729655.6,286046958.1,N
1615729675.4,286046959.5,N
1615729695.2,286046957.6,N
1615729715.1,286046956.1,N
1615729716.0,286046956.1,N
1615729735.8,286046952.1,N
1615729755.7,286046948.5,N
1615729775.5,286046951.6,N
1615729795.3,286046947.5,N
1615729815.2,286046946.8,N
1615729835.0,286046944.8,Y
1615729835.9,286046944.8,P
1615729855.8,286046968.5,N
1615729875.6,286046966.6,N
1615729895.4,286046965.1,Y
1615729915.3,286047000.8,P
1615729935.1,286047009.5,N
1615729955.8,286047012.0,N
1615729975.7,286047011.6,N
1615729995.5,286047009.1,N
1615730015.4,286047006.4,N
1615730035.2,286047004.0,N
1615730055.0,286046998.4,N
1615730085.9,286046998.1,E
1615730095.9,286046999.7,N
1615730115.7,286046998.7,P
1615730135.5,286047004.3,P
1615730155.4,286047000.6,N
1615730175.2,286046997.8,N
1615730195.1,286046993.2,Y
1615730196.0,286046993.2,P
1615730215.8,286046988.8,P
1615730235.6,286046991.7,N
1615730255.5,286047001.4,N
1615730275.3,286047013.2,N
1615730295.1,286047016.5,N
1615730315.9,286047013.4,N
1615730335.7,286047019.2,N
1615730355.6,286047016.6,N
1615730375.4,286047012.3,N
1615730395.2,286047004.4,N
